Home > Time Zones > World Clock > Weather > U.S.A. > Hilo > Past weeks

Flag for U.S.A. Weather past 2 weeks in Hilo, Hawaii, U.S.A.

Now
74 °F

Mostly cloudy.


Feels Like: 75 °F
Forecast: 67 / 71 °F
Wind: 7 mph from North

Location: Hilo International Airport

Current Time: Mar 4, 2015 at 10:27:49 AM

Latest Report: Mar 4, 2015 at 9:53 AM


Visibility: 10 mi

Pressure: 30.03 "Hg

Humidity: 76%

Dew point: 66 °F

Location of HiloLocation

Historic Weather in Hilo — Graph

°F

Hilo temperature yesterday

Maximum temperature yesterday: 81 °F (at 1:53 PM)
Minimum temperature yesterday: 66 °F (at 12:53 AM)
Average temperature yesterday: 73 °F

Past Weeks' High & Low Weather Summary

 TemperatureHumidityPressure
High87 °F (Feb 19, 11:53 AM)100% (Feb 21, 8:09 PM)30.09 "Hg (Feb 21, 8:09 PM)
Low64 °F (Feb 24, 6:02 AM)46% (Feb 18, 12:53 PM)29.82 "Hg (Feb 19, 3:53 PM)
Average73 °F79%29.98 "Hg
* Reported Feb 17 8:53 AM — Mar 4 8:53 AM, Hilo, Weather by CustomWeather, © 2015

Note: Actual official high and low records may vary slightly from our data, if they occured in-between our weather recording intervals... More about our weather records

Advertising

Hilo weather history for previous 24 hours

 ConditionsComfort  
Time TempWeatherWind HumidityBarometerVisibility
8:53 AM
Wed, Mar 4
70 °FLight rain. Mostly cloudy.5 mph90%30.00 "Hg10 mi
8:27 AM70 °FLight rain. Fog.7 mph88%30.00 "Hg5 mi
7:53 AM68 °FRain. Fog.8 mph96%30.01 "Hg2 mi
6:53 AM69 °FHeavy rain. Fog.3 mph93%29.99 "Hg2 mi
6:17 AM70 °FHeavy rain. Fog.No wind94%29.98 "Hg3 mi
5:53 AM69 °FRain. Fog.6 mph93%29.96 "Hg3 mi
5:34 AM70 °FRain. Fog.9 mph88%29.95 "Hg3 mi
4:56 AM70 °FRain. Mostly cloudy.9 mph93%29.94 "Hg10 mi
3:53 AM70 °FMostly cloudy.3 mph90%29.91 "Hg10 mi
3:00 AM70 °FLight rain. Mostly cloudy.8 mph93%29.94 "Hg10 mi
1:53 AM70 °FHeavy rain. Fog.10 mph97%29.98 "Hg3 mi
1:36 AM70 °FHeavy rain. Fog.7 mph100%29.99 "Hg3 mi
1:20 AM70 °FLight rain. Mostly cloudy.7 mph100%29.99 "Hg10 mi
12:53 AM70 °FHeavy rain. Overcast.5 mph97%29.99 "Hg10 mi
11:53 PM
Tue, Mar 3
71 °FHeavy rain. Low clouds.3 mph93%30.01 "Hg10 mi
11:08 PM72 °FHeavy rain. Mostly cloudy.6 mph94%30.01 "Hg10 mi
10:53 PM71 °FHeavy rain. Overcast.8 mph93%30.01 "Hg10 mi
10:33 PM72 °FHeavy rain. Low clouds.3 mph94%30.02 "Hg10 mi
10:02 PM72 °FMostly cloudy.5 mph94%30.02 "Hg10 mi
9:36 PM73 °FRain. Overcast.5 mph94%30.02 "Hg10 mi
8:53 PM72 °FRain. Mostly cloudy.No wind93%30.01 "Hg10 mi
8:36 PM73 °FHeavy rain. Mostly cloudy.6 mph89%30.01 "Hg10 mi
8:28 PM73 °FLight rain. Mostly cloudy.3 mph89%30.01 "Hg10 mi
7:53 PM73 °FLight rain. Mostly cloudy.5 mph90%29.98 "Hg10 mi
7:09 PM73 °FPartly cloudy.5 mph89%29.97 "Hg10 mi
6:53 PM73 °FPartly cloudy.6 mph90%29.96 "Hg10 mi
6:29 PM73 °FPassing clouds.No wind89%29.96 "Hg10 mi
5:53 PM74 °FCloudy.6 mph88%29.94 "Hg10 mi
5:21 PM73 °FLight rain. Mostly cloudy.3 mph89%29.94 "Hg10 mi
4:53 PM76 °FCloudy.9 mph85%29.93 "Hg10 mi
4:24 PM77 °FCloudy.5 mph79%29.93 "Hg10 mi
3:53 PM78 °FMostly cloudy.8 mph74%29.93 "Hg10 mi
2:53 PM81 °FBroken clouds.8 mph72%29.93 "Hg10 mi
1:53 PM81 °FMore clouds than sun.8 mph69%29.96 "Hg10 mi
1:24 PM81 °FCloudy.8 mph74%29.98 "Hg10 mi
12:53 PM80 °FPartly sunny.9 mph71%29.98 "Hg10 mi
11:53 AM80 °FScattered clouds.10 mph69%30.01 "Hg10 mi
10:53 AM79 °FPassing clouds.8 mph72%30.03 "Hg10 mi
Weather by CustomWeather, © 2015

See weather overviewHow to use our weather pages